STARLINK-4359, 53226

Orbit data source: Space-Track

STARLINK-4359, 53226 is a payload satellite owned by SpaceX/Seattle (US) in SSO that was launched on Fri, 22 Jul 2022 UTC via an FALCON 9 launch vehicle from the Air Force Western Test Range (AFWTR). Payload-class satellites include a variety of spacecraft equipped with specific instruments for various scientific and technological missions. These include communications satellites like Starlink; space stations such as the ISS; scientific satellites like the Hubble; Earth observation satellites from companies like Planet Labs, Umbra, and HawkEye 360; GPS; miniature CubeSats for education and research; and military/defense satellites.

Loading next visibility...
Identifier
53226, 2022-084AP
Orbit
SSO
Country
Flag of USUS
Related business
Manufacturer
SpaceX/Seattle
Mission
Operational Commercial Communications
Bus & Motor
STARLINK, Unknown motor
Mass
297 kg wet, ~275 kg dry
Launch date (UTC)
2022-07-22 (4 years ago)
Launch vehicle
FALCON 9
Launch site
Air Force Western Test Range (AFWTR)
Object type
Payload
Rocket body
Debris
Shape & HBR
Box + 1 Pan, 10.1 m
Radar Cross Section
13.562 m², Large (>1 m²)

Expand to show TLE details & history
Last TLE update: 3 days ago

TLE from 3 days ago
0 STARLINK-4359
1 53226U 22084AP  26170.73013309  .00013917  00000-0  96852-3 0  9990
2 53226  97.3395 229.5933 0002002 173.5427 186.5827 15.05576919214666
Epoch: 2026-06-19T17:31Z
TLE epoch observation values (Epoch: 2026-06-19T17:31:23.498Z)
Latitude
-0.00002°
Longitude
58.79048°
Altitude
554.186 km
Speed
7.584 km/s
True Right ascension
15h 18m 22s
True Declination
0° 00' 00"
Sunlit
Object was in full shadow at epoch
Visualization orbit readout
Latitude
Unknown
Longitude
Unknown
Altitude
Unknown
Speed
Unknown
Apparent Right ascension
Unknown
Apparent Declination
Unknown
Sunlit
N/A
Visualization observer readout
Local Sidereal Time
21:29:38
Azimuth
Unknown
Elevation
Unknown
Doppler factor
Unknown
Orbital elements
Apogee altitude
548.104 km
Perigee altitude
545.331 km
Semi-major axis
6,924.855 km
Eccentricity
0.0002
Inclination
97.3395°
RAAN
229.5933°
Arg. of periapsis
173.5427°
True anomaly
186.58007°
Mean anomaly
186.5827°
Eccentric anomaly
186.58139°
Mean motion
3.76641 °/min
Orbital period
95.58 mins
BSTAR
0.00096852
Loading maneuver chart data...
Computing Atmospheric mass density...
Loading historical data...
Loading historical data...
Loading historical data...
Loading historical data...
Loading historical data...
Loading historical data...
Loading historical data...

Documentation

Showing up to 5 results
|